Location: Joplin, MO
(37.0842°N, 94.5133°W)
Time: 21:18:34
(UTC+02:00)

Transit 2A Rocket - Pass Details

Date: 27 March 2023
Orbit: 584 x 914 km, 66.7° (Epoch: 06 June)

Event Time Altitude Azimuth Distance (km) Brightness Sun altitude
Rises 02:37:07 0° 345° (NNW) 3,554 8.7 -1.2°
Reaches altitude 10° 02:40:49 10° 7° (N) 2,604 7.7 -2.0°
Maximum altitude 02:44:23 16° 43° (NE) 2,188 7.0 -2.7°
Drops below altitude 10° 02:47:53 10° 80° (E) 2,543 7.1 -3.4°
Enters shadow 02:49:56 - 94° (E) 3,021 7.4 -3.8°
Sets 02:51:24 0° 101° (ESE) 3,429 - -4.1°
